Wind_Speed
16 25 29 29 31 35 31 32 38 34 28 30 27 26 25 24 25 27 27 26 27 28 28 28 30 27 27 27 25 26 29 29
20 20 19 24 23 24 29 31 34 32 27 27 25 26 24 25 26 23 25 26 27 29 26 28 29 29 33 29 28 30 25 28
18 22 22 21 21 22 22 29 35 31 28 27 23 22 23 22 25 28 28 27 28 30 29 29 29 30 33 29 30 24 23 32
8 7 11 25 25 22 21 23 33 30 26 23 21 23 20 22 23 24 27 27 29 30 32 30 31 28 25 33 33 31 25 27
7 8 8 15 24 27 24 23 23 32 29 26 28 24 19 16 20 21 23 26 29 31 30 32 32 32 34 36 38 39 27 23
6 7 10 20 18 25 28 26 24 32 32 28 29 24 20 16 19 22 23 23 26 29 30 32 33 32 35 35 35 35 34 25
7 8 10 16 19 19 30 26 22 30 29 32 28 26 20 20 23 21 23 24 26 29 30 34 36 35 37 39 35 39 38 30
16 9 8 8 15 18 26 24 20 29 28 28 24 28 23 18 25 23 20 21 25 28 30 33 35 39 37 36 39 39 37 35
17 21 20 8 7 22 19 19 18 25 27 25 23 20 16 15 15 16 19 20 22 28 31 31 36 39 38 36 37 37 39 36
17 18 21 12 16 15 10 11 17 22 25 22 20 19 15 11 13 14 14 17 17 23 27 33 35 40 36 37 32 37 41 35
16 17 19 28 17 10 3 8 12 21 23 19 17 14 13 12 12 13 13 14 12 17 23 31 28 34 36 34 33 30 35 34
15 16 24 32 13 6 3 5 6 22 20 15 16 14 13 12 11 13 14 11 12 15 21 21 30 35 37 35 31 34 32 30
15 15 19 25 25 6 5 5 15 18 17 14 15 15 13 13 12 12 13 12 15 18 18 18 16 26 36 33 31 32 30 30
16 16 15 19 25 28 7 6 3 12 19 15 14 15 14 12 11 12 13 15 20 20 19 21 22 20 28 31 35 31 29 27
16 15 15 20 25 26 28 8 0 6 13 12 13 16 14 13 12 13 15 17 21 21 20 20 21 18 17 18 23 27 24 26
17 15 15 19 24 28 29 29 8 8 10 11 11 14 18 15 17 15 16 18 20 21 22 23 23 23 22 24 25 27 30 29
18 18 17 17 22 24 27 28 28 9 4 7 9 11 14 15 14 15 16 18 19 20 23 22 19 21 24 25 25 26 27 26
18 17 17 21 22 22 24 26 26 16 16 14 15 13 14 13 13 15 13 13 18 20 20 20 17 11 16 24 25 21 22 20
16 16 21 23 23 24 25 27 26 21 20 19 15 16 17 16 17 17 16 17 17 19 18 16 14 10 7 11 19 15 16 12
Wind_Direction
227 228 233 226 220 226 207 174 180 184 184 196 203 205 206 200 197 205 202 209 208 214 207 207 201 205 199 203 198 179 177 183
266 252 231 231 234 226 207 172 172 170 180 184 194 196 199 206 200 191 200 205 209 210 214 207 209 200 195 196 189 179 186 185
238 240 219 228 223 229 193 176 167 175 184 198 196 194 201 205 208 213 215 215 217 212 207 206 201 207 181 190 183 183 190 190
257 251 216 212 214 218 182 177 168 177 179 185 189 196 202 201 200 211 217 217 218 217 211 210 208 200 192 187 186 182 186 197
311 295 286 249 203 206 192 186 190 180 176 185 193 192 187 193 191 205 223 222 224 221 220 209 202 191 185 193 192 188 190 192
276 277 276 258 228 198 189 189 198 169 178 193 200 192 186 188 210 214 215 212 208 213 217 212 209 202 194 193 190 186 193 190
295 271 267 270 224 207 180 180 189 169 182 203 202 182 184 195 192 192 199 211 219 224 219 215 206 198 193 192 193 190 192 193
346 299 277 239 225 204 160 171 182 172 186 204 202 181 197 204 179 189 188 198 209 213 218 207 196 195 190 191 192 196 189 191
348 338 336 298 213 133 151 170 194 175 180 201 201 192 200 210 186 195 191 202 202 212 211 215 208 197 197 197 192 188 188 193
343 344 338 308 92 100 129 175 206 184 177 191 198 188 182 188 194 181 205 208 206 207 215 212 196 196 196 194 190 190 185 200
350 356 342 339 98 107 168 232 272 169 166 177 185 169 176 192 171 193 196 206 217 220 223 204 190 186 191 188 188 179 185 198
359 360 351 351 73 69 201 240 358 139 149 165 168 173 183 162 187 199 204 205 216 217 214 197 189 190 183 184 177 185 190 192
6 2 1 359 358 80 335 318 325 152 153 150 151 171 176 169 170 188 193 195 201 195 194 183 169 187 187 180 169 173 172 182
10 5 5 358 357 358 350 347 331 132 141 147 159 177 183 169 173 172 178 184 179 178 179 174 176 152 148 163 172 174 177 189
10 3 0 358 357 357 354 333 263 142 131 151 179 179 176 178 183 176 173 188 183 182 182 177 173 166 158 153 162 172 190 200
8 3 359 356 358 354 352 350 305 155 167 176 196 188 182 174 179 171 169 186 189 192 182 186 183 184 185 186 187 192 200 215
5 2 359 358 359 354 350 348 347 210 137 165 183 192 175 161 155 153 169 173 181 186 192 187 173 172 196 205 211 211 216 222
6 4 0 357 2 1 358 350 358 18 91 87 99 102 107 106 138 137 129 100 107 109 118 134 132 151 191 204 208 203 207 211
9 4 4 3 7 15 18 13 12 15 46 54 71 98 103 107 113 110 114 115 107 101 96 97 92 74 131 163 189 159 150 142
Height
663 666 668 670 674 678 681 684 691 701 710 716 724 728 731 734 737 741 746 750 754 758 763 767 772 777 779 785 788 791 795 801
660 660 661 664 667 670 674 679 686 694 705 711 717 720 726 729 732 736 741 744 750 754 758 763 767 772 776 778 783 789 794 802
655 655 655 659 662 665 669 675 681 688 698 707 713 717 722 725 728 732 737 740 744 749 753 758 762 766 766 773 781 786 792 798
647 647 649 652 656 661 664 670 677 684 694 704 710 715 719 722 722 726 731 735 739 743 748 752 757 761 764 767 776 783 787 794
647 647 647 647 649 653 660 665 673 680 689 698 703 704 708 713 717 723 727 731 734 738 743 747 751 755 760 767 771 776 784 789
649 648 646 644 644 647 653 660 669 675 684 693 697 700 705 709 714 718 722 726 729 733 737 741 745 749 755 761 766 770 778 783
646 643 642 640 640 643 648 656 664 672 680 687 690 695 700 704 709 713 717 721 724 728 731 735 739 743 748 753 759 765 772 780
651 643 638 634 636 639 646 654 661 670 676 682 686 690 695 699 703 708 711 715 719 722 726 729 731 736 741 746 754 760 767 773
661 657 645 636 632 640 647 654 660 666 672 678 683 686 692 697 700 704 707 711 713 717 720 724 727 731 735 743 749 753 760 768
673 666 657 640 642 646 652 657 661 664 670 676 681 686 690 696 699 702 706 708 710 713 716 718 719 724 731 737 743 748 755 764
681 675 669 652 648 655 659 660 662 662 668 676 682 683 690 695 698 702 704 705 706 709 712 713 715 718 726 733 740 745 752 760
690 686 678 668 660 662 663 665 666 664 669 678 681 685 692 695 699 701 702 702 705 707 709 710 712 718 722 729 734 742 750 758
697 693 687 680 676 668 666 668 668 667 670 678 683 688 693 695 698 700 700 701 704 707 708 710 712 715 720 726 732 740 747 753
703 699 695 692 686 679 674 674 674 672 674 679 685 690 693 694 698 699 699 702 705 707 709 711 714 716 718 723 728 738 744 751
712 709 705 700 695 689 684 678 677 678 677 681 687 691 693 694 697 699 699 702 705 707 711 713 716 719 722 726 731 738 746 751
719 718 713 709 703 697 691 683 679 679 681 684 688 690 692 693 696 698 699 703 705 708 711 714 717 721 725 729 734 739 745 750
729 727 723 718 712 706 701 694 685 682 682 685 688 690 691 692 695 698 700 703 705 707 709 713 717 719 724 729 732 736 741 744
738 735 731 725 719 714 708 703 694 689 684 688 688 690 690 692 695 697 700 703 704 706 708 711 716 720 722 725 729 733 737 740
748 743 737 732 726 718 713 710 705 700 692 693 694 694 694 696 697 699 702 704 707 710 713 716 718 721 723 725 727 730 733 736